Weather History for KADU - October, 2012

Change the Weather History Date:

Monday, October 22, 2012

  Actual Average Record
Temperature  
Mean Temperature 62 °F -  
Max Temperature 69 °F 64 °F 82 °F (1975)
Min Temperature 55 °F 39 °F 19 °F (1976)
Degree Days  
Heating Degree Days 3    
Growing Degree Days 12 (Base 50)    
Moisture  
Dew Point 61 °F    
Average Humidity 90    
Maximum Humidity 94    
Minimum Humidity 82    
Precipitation  
Precipitation 0.00 in - - ()
Sea Level Pressure  
Sea Level Pressure 29.80 in    
Wind  
Wind Speed 3 mph (East)    
Max Wind Speed 14 mph    
Max Gust Speed 20 mph    
Visibility 5 miles    
Events      
Averages and records for this station are not official NWS values.
T = Trace of Precipitation, MM = Missing Value Source: NWS Daily Summary

Daily Weather History Graph

Daily Weather History Graph

Search for Another Location

Airport or City:

Trip Planner

Search our weather history database for the weather conditions in past years. The results will help you decide how hot, cold, wet, or windy it might be!

Date:

Astronomy

Oct. 22, 2012 Rise Set
Actual Time 7:40 AM CDT 6:26 PM CDT
Civil Twilight 7:12 AM CDT 6:55 PM CDT
Nautical Twilight 6:39 AM CDT 7:27 PM CDT
Astronomical Twilight 6:07 AM CDT 7:59 PM CDT
Moon 2:40 PM CDT (10/22) 12:22 AM CDT (10/22)
Length of Visible Light 11h 43m
Length of Day
10h 46m
First Quarter, 56% of the Moon is Illuminated
Oct 22
First Quarter
Oct 29
Full
Nov 6
Last Quarter
Nov 13
New
Nov 20
First Quarter

Hourly Weather History & Observations

Time (CDT) Temp. Dew Point Humidity Pressure Visibility Wind Dir Wind Speed Gust Speed Precip Events Conditions
12:15 AM 64.4 °F 60.8 °F 88% 29.82 in 7.0 mi Calm Calm - N/A   Clear
12:55 AM 64.4 °F 60.8 °F 88% 29.81 in 7.0 mi Calm Calm - N/A   Clear
1:35 AM 62.6 °F 59.0 °F 88% 29.80 in 7.0 mi Calm Calm - N/A   Clear
1:55 AM 62.6 °F 59.0 °F 88% 29.79 in 5.0 mi Calm Calm - N/A   Clear
2:15 AM 62.6 °F 57.2 °F 82% 29.80 in 5.0 mi Calm Calm - N/A   Clear
2:35 AM 62.6 °F 60.8 °F 94% 29.79 in 7.0 mi Calm Calm - N/A   Scattered Clouds
2:55 AM 64.4 °F 62.6 °F 94% 29.80 in 5.0 mi South 3.5 mph - N/A   Scattered Clouds
3:15 AM 66.2 °F 64.4 °F 94% 29.79 in 3.0 mi ESE 4.6 mph - N/A   Mostly Cloudy
3:55 AM 60.8 °F 57.2 °F 88% 29.81 in 7.0 mi North 3.5 mph - N/A   Mostly Cloudy
4:15 AM 60.8 °F 57.2 °F 88% 29.81 in 7.0 mi North 4.6 mph - N/A   Mostly Cloudy
4:35 AM 59.0 °F 55.4 °F 88% 29.80 in 7.0 mi NNW 8.1 mph - N/A   Mostly Cloudy
4:55 AM 57.2 °F 55.4 °F 94% 29.78 in 7.0 mi Calm Calm - N/A   Scattered Clouds
5:15 AM 57.2 °F 55.4 °F 94% 29.80 in 7.0 mi Calm Calm - N/A   Clear
5:35 AM 57.2 °F 53.6 °F 88% 29.79 in 7.0 mi Calm Calm - N/A   Clear
5:55 AM 57.2 °F 53.6 °F 88% 29.79 in 5.0 mi Calm Calm - N/A   Clear
6:15 AM 55.4 °F 53.6 °F 94% 29.80 in 4.0 mi Calm Calm - N/A   Clear
6:35 AM 55.4 °F 53.6 °F 94% 29.82 in 5.0 mi Calm Calm - N/A   Scattered Clouds
6:55 AM 55.4 °F 53.6 °F 94% 29.82 in 4.0 mi NE 3.5 mph - N/A   Mostly Cloudy
7:15 AM 55.4 °F 53.6 °F 94% 29.82 in 5.0 mi North 3.5 mph - N/A   Scattered Clouds
7:35 AM 55.4 °F 53.6 °F 94% 29.82 in 7.0 mi Calm Calm - N/A   Scattered Clouds
7:55 AM 55.4 °F 53.6 °F 94% 29.82 in 4.0 mi North 3.5 mph - N/A   Clear
8:15 AM 57.2 °F 53.6 °F 88% 29.83 in 2.5 mi North 4.6 mph - N/A   Mostly Cloudy
8:35 AM 57.2 °F 55.4 °F 94% 29.84 in 0.2 mi North 4.6 mph - N/A   Overcast
8:55 AM 57.2 °F 55.4 °F 94% 29.84 in 1.2 mi NNE 3.5 mph - N/A   Overcast
9:15 AM 57.2 °F 55.4 °F 94% 29.84 in 2.0 mi North 5.8 mph - N/A   Overcast
9:35 AM 59.0 °F 57.2 °F 94% 29.84 in 2.0 mi North 5.8 mph - N/A   Overcast
9:55 AM 60.8 °F 57.2 °F 88% 29.84 in 2.5 mi North 5.8 mph - N/A   Overcast
10:15 AM 60.8 °F 57.2 °F 88% 29.84 in 3.0 mi NE 3.5 mph - N/A   Overcast
10:35 AM 62.6 °F 60.8 °F 94% 29.84 in 3.0 mi ENE 5.8 mph - N/A   Overcast
10:55 AM 64.4 °F 60.8 °F 88% 29.84 in 3.0 mi ENE 8.1 mph - N/A   Overcast
11:15 AM 62.6 °F 60.8 °F 94% 29.84 in 0.8 mi East 5.8 mph - N/A   Overcast
11:35 AM 64.4 °F 60.8 °F 88% 29.84 in 2.0 mi East 6.9 mph - N/A   Overcast
11:55 AM 64.4 °F 62.6 °F 94% 29.84 in 2.5 mi East 4.6 mph - N/A   Overcast
12:15 PM 64.4 °F 62.6 °F 94% 29.82 in 4.0 mi ENE 6.9 mph - N/A   Overcast
12:35 PM 66.2 °F 62.6 °F 88% 29.81 in 5.0 mi East 5.8 mph - N/A   Overcast
12:55 PM 68.0 °F 66.2 °F 94% 29.80 in 5.0 mi ENE 6.9 mph - N/A   Mostly Cloudy
1:15 PM 69.8 °F 66.2 °F 88% 29.80 in 7.0 mi East 5.8 mph - N/A   Scattered Clouds
1:35 PM 69.8 °F 66.2 °F 88% 29.80 in 7.0 mi ENE 6.9 mph - N/A   Scattered Clouds
1:55 PM 69.8 °F 66.2 °F 88% 29.80 in 7.0 mi East 6.9 mph - N/A   Mostly Cloudy
2:15 PM 69.8 °F 66.2 °F 88% 29.80 in 7.0 mi East 5.8 mph - N/A   Overcast
2:35 PM 69.8 °F 66.2 °F 88% 29.79 in 7.0 mi ESE 5.8 mph - N/A   Overcast
2:55 PM 69.8 °F 66.2 °F 88% 29.79 in 7.0 mi SE 5.8 mph - N/A   Mostly Cloudy
3:15 PM 69.8 °F 66.2 °F 88% 29.79 in 5.0 mi East 6.9 mph - N/A   Scattered Clouds
3:35 PM 69.8 °F 66.2 °F 88% 29.79 in 5.0 mi East 5.8 mph - N/A   Mostly Cloudy
3:55 PM 69.8 °F 66.2 °F 88% 29.78 in 5.0 mi ESE 6.9 mph - N/A   Mostly Cloudy
4:15 PM 69.8 °F 66.2 °F 88% 29.78 in 7.0 mi East 8.1 mph - N/A   Mostly Cloudy
4:35 PM 69.8 °F 66.2 °F 88% 29.78 in 5.0 mi East 8.1 mph - N/A   Mostly Cloudy
4:55 PM 69.8 °F 66.2 °F 88% 29.78 in 5.0 mi East 6.9 mph - N/A   Mostly Cloudy
5:15 PM 69.8 °F 66.2 °F 88% 29.78 in 5.0 mi East 6.9 mph - N/A   Scattered Clouds
5:35 PM 69.8 °F 66.2 °F 88% 29.79 in 5.0 mi East 6.9 mph - N/A   Scattered Clouds
5:55 PM 69.8 °F 66.2 °F 88% 29.80 in 4.0 mi ESE 3.5 mph - N/A   Scattered Clouds
6:15 PM 69.8 °F 66.2 °F 88% 29.79 in 4.0 mi ESE 5.8 mph - N/A   Mostly Cloudy
6:35 PM 69.8 °F 64.4 °F 83% 29.79 in 5.0 mi East 3.5 mph - N/A   Mostly Cloudy
6:55 PM 68.0 °F 64.4 °F 88% 29.79 in 5.0 mi East 3.5 mph - N/A   Scattered Clouds
7:15 PM 68.0 °F 64.4 °F 88% 29.79 in 5.0 mi East 4.6 mph - N/A   Scattered Clouds
7:35 PM 68.0 °F 64.4 °F 88% 29.78 in 5.0 mi East 4.6 mph - N/A   Scattered Clouds
7:55 PM 68.0 °F 64.4 °F 88% 29.78 in 5.0 mi East 8.1 mph - N/A   Clear
8:15 PM 68.0 °F 64.4 °F 88% 29.78 in 5.0 mi ESE 4.6 mph - N/A   Scattered Clouds
8:55 PM 66.2 °F 62.6 °F 88% 29.78 in 4.0 mi SSE 3.5 mph - N/A   Clear
9:15 PM 64.4 °F 62.6 °F 94% 29.77 in 4.0 mi Calm Calm - N/A   Clear
9:35 PM 64.4 °F 62.6 °F 94% 29.77 in 5.0 mi SSE 3.5 mph - N/A   Clear
9:55 PM 64.4 °F 60.8 °F 88% 29.77 in 4.0 mi SSE 4.6 mph - N/A   Clear
10:15 PM 62.6 °F 60.8 °F 94% 29.77 in 7.0 mi South 5.8 mph - N/A   Clear
10:35 PM 64.4 °F 60.8 °F 88% 29.77 in 7.0 mi South 11.5 mph 19.6 mph N/A   Mostly Cloudy
10:55 PM 64.4 °F 62.6 °F 94% 29.77 in 2.5 mi SSW 13.8 mph - N/A   Overcast
11:15 PM 64.4 °F 60.8 °F 88% 29.77 in 3.0 mi SSW 11.5 mph 19.6 mph N/A   Overcast
11:35 PM 62.6 °F 60.8 °F 94% 29.77 in 5.0 mi SSW 6.9 mph - N/A   Scattered Clouds